GW3838 Weather Reports


Display with metric or nautical units.
time (UTC)temp
F
wind
direction
speed
MPH
gust
MPH
rain 1hr
in
rain 24hr
in
rain mn
in
humidity
%
barometer
mb
20260906143031 86 114 0.0 2.0 0.00 0.00 0.00 79 1018.4
20260906142525 85 132 0.0 5.0 0.00 0.00 0.00 80 1018.5
20260906142020 86 112 1.0 3.0 0.00 0.00 0.00 78 1018.4
20260906141513 85 204 1.0 2.0 0.00 0.00 0.00 80 1018.4
20260906141008 84 86 1.0 2.0 0.00 0.00 0.00 81 1018.5
20260906140502 83 103 1.0 6.0 0.00 0.00 0.00 83 1018.3
20260906140001 82 79 1.0 3.0 0.00 0.00 0.00 83 1018.4
20260906135459 82 41 4.0 6.0 0.00 0.00 0.00 82 1018.6
20260906134954 83 23 3.0 3.0 0.00 0.00 0.00 82 1018.5
20260906134450 83 64 2.0 5.0 0.00 0.00 0.00 83 1018.6
20260906133951 82 10 2.0 3.0 0.00 0.00 0.00 84 1018.7
20260906133447 83 108 0.0 1.0 0.00 0.00 0.00 83 1018.5
20260906132942 82 108 1.0 2.0 0.00 0.00 0.00 84 1018.5
20260906132437 81 156 0.0 1.0 0.00 0.00 0.00 86 1018.4
20260906131932 79 119 1.0 1.0 0.00 0.00 0.00 89 1018.5
20260906131428 79 109 1.0 2.0 0.00 0.00 0.00 90 1018.5
20260906130924 78 108 1.0 2.0 0.00 0.00 0.00 91 1018.5
20260906130422 78 173 2.0 2.0 0.00 0.00 0.00 91 1018.6
20260906125917 78 167 1.0 2.0 0.00 0.00 0.00 91 1018.6
20260906125414 78 183 2.0 2.0 0.00 0.00 0.00 91 1018.4
20260906124909 78 164 1.0 3.0 0.00 0.00 0.00 91 1018.5
20260906124405 78 169 2.0 2.0 0.00 0.00 0.00 91 1018.5
20260906123904 78 202 2.0 2.0 0.00 0.00 0.00 91 1018.2
20260906123358 78 175 1.0 2.0 0.00 0.00 0.00 91 1018.2
20260906122858 78 163 1.0 1.0 0.00 0.00 0.00 91 1018.2
20260906122353 77 145 0.0 1.0 0.00 0.00 0.00 92 1018.0
20260906121850 77 170 0.0 1.0 0.00 0.00 0.00 92 1018.2
20260906121346 77 163 1.0 1.0 0.00 0.00 0.00 92 1018.2
20260906120842 77 124 1.0 2.0 0.00 0.00 0.00 92 1018.3
20260906120337 77 180 1.0 2.0 0.00 0.00 0.00 92 1018.0
20260906115833 77 163 0.0 1.0 0.00 0.00 0.00 93 1018.0
20260906115328 77 162 0.0 2.0 0.00 0.00 0.00 93 1017.9
20260906114828 77 101 1.0 1.0 0.00 0.00 0.00 94 1017.6
20260906114323 77 101 0.0 0.0 0.00 0.00 0.00 95 1017.8
20260906113818 76 100 1.0 1.0 0.00 0.00 0.00 95 1017.7
20260906113317 76 112 0.0 1.0 0.00 0.00 0.00 95 1017.6
20260906112813 76 114 0.0 0.0 0.00 0.00 0.00 96 1017.4
20260906112309 75 113 1.0 1.0 0.00 0.00 0.00 96 1017.5
20260906111809 75 114 0.0 1.0 0.00 0.00 0.00 96 1017.6
20260906111308 75 92 1.0 2.0 0.00 0.00 0.00 96 1017.5
20260906110803 76 85 1.0 2.0 0.00 0.00 0.00 95 1017.7
20260906110259 76 108 1.0 2.0 0.00 0.00 0.00 95 1017.4
20260906105758 76 101 1.0 2.0 0.00 0.00 0.00 95 1017.4
20260906105254 76 83 0.0 1.0 0.00 0.00 0.00 95 1017.6
20260906104749 76 83 0.0 2.0 0.00 0.00 0.00 95 1017.3
20260906104247 76 85 0.0 0.0 0.00 0.00 0.00 95 1017.6
20260906103746 76 84 1.0 2.0 0.00 0.00 0.00 95 1017.5
20260906103240 76 95 1.0 1.0 0.00 0.00 0.00 95 1017.4
20260906102736 76 80 2.0 2.0 0.00 0.00 0.00 96 1017.2
20260906102234 76 108 0.0 1.0 0.00 0.00 0.00 96 1017.0
20260906101729 76 120 0.0 1.0 0.00 0.00 0.00 96 1016.9
20260906101219 76 118 1.0 1.0 0.00 0.00 0.00 96 1017.2
20260906100714 76 95 1.0 2.0 0.00 0.00 0.00 97 1017.2
20260906100209 76 95 1.0 1.0 0.00 0.00 0.00 97 1017.3
20260906095703 76 129 1.0 2.0 0.00 0.00 0.00 98 1017.3
20260906095159 76 108 1.0 3.0 0.00 0.00 0.00 98 1017.3
20260906094657 76 44 1.0 2.0 0.00 0.00 0.00 98 1017.4
20260906094153 76 111 0.0 2.0 0.00 0.00 0.00 99 1017.2
20260906093650 76 152 0.0 0.0 0.00 0.00 0.00 99 1017.2
20260906093150 76 151 0.0 1.0 0.00 0.00 0.00 99 1017.0
20260906092644 76 151 1.0 2.0 0.00 0.00 0.00 99 1017.1
20260906092139 76 151 2.0 2.0 0.00 0.00 0.00 99 1016.9
20260906091635 76 169 0.0 1.0 0.00 0.00 0.00 99 1017.0
20260906091131 76 169 0.0 1.0 0.00 0.00 0.00 99 1017.0
20260906090626 76 169 2.0 2.0 0.00 0.00 0.00 99 1017.1
20260906090121 76 169 0.0 0.0 0.00 0.00 0.00 99 1016.9
20260906085620 76 169 0.0 0.0 0.00 0.00 0.00 99 1017.0
20260906085114 76 169 0.0 0.0 0.00 0.00 0.00 99 1016.7
20260906084609 76 169 1.0 1.0 0.00 0.00 0.00 99 1016.7
20260906084108 76 169 0.0 0.0 0.00 0.00 0.00 98 1016.8
20260906083604 76 169 0.0 0.0 0.00 0.00 0.00 98 1016.7
20260906083103 76 169 0.0 1.0 0.00 0.00 0.00 98 1016.5
20260906082559 77 169 1.0 1.0 0.00 0.00 0.00 98 1016.5
20260906082054 77 169 1.0 1.0 0.00 0.00 0.00 98 1016.6
20260906081550 77 169 1.0 1.0 0.00 0.00 0.00 98 1016.9
20260906081045 77 169 1.0 1.0 0.00 0.00 0.00 98 1016.8
20260906080542 77 169 0.0 0.0 0.00 0.00 0.00 98 1016.9
20260906080037 77 169 0.0 0.0 0.00 0.00 0.00 98 1016.6
20260906075531 77 169 0.0 0.0 0.00 0.00 0.00 98 1016.7
20260906075026 77 169 0.0 1.0 0.00 0.00 0.00 98 1016.5
20260906074521 77 169 0.0 0.0 0.00 0.00 0.00 98 1016.7
20260906074020 77 169 0.0 0.0 0.00 0.00 0.00 98 1016.6
20260906073515 77 169 1.0 1.0 0.00 0.00 0.00 98 1016.9
20260906073011 76 169 0.0 0.0 0.00 0.00 0.00 98 1016.6
20260906072505 77 169 0.0 0.0 0.00 0.00 0.00 98 1016.8
20260906072002 77 169 0.0 1.0 0.00 0.00 0.00 98 1016.7
20260906071458 77 169 1.0 2.0 0.00 0.00 0.00 98 1016.8
20260906070953 77 169 0.0 0.0 0.00 0.00 0.00 97 1016.6
20260906070448 77 169 0.0 0.0 0.00 0.00 0.00 97 1016.9
20260906065943 77 169 0.0 0.0 0.00 0.00 0.00 97 1016.8
20260906065438 77 169 1.0 1.0 0.00 0.00 0.00 97 1016.6
20260906064933 77 169 1.0 1.0 0.00 0.00 0.00 97 1016.9
20260906064430 77 169 0.0 0.0 0.00 0.00 0.00 97 1016.9
20260906063924 77 169 0.0 0.0 0.00 0.00 0.00 96 1017.0
20260906063419 77 169 2.0 2.0 0.00 0.00 0.00 96 1017.2
20260906062915 77 169 0.0 1.0 0.00 0.00 0.00 96 1017.1
20260906062415 78 169 0.0 1.0 0.00 0.00 0.00 96 1017.2
20260906061909 78 169 0.0 0.0 0.00 0.00 0.00 95 1017.2
20260906061400 78 169 0.0 0.0 0.00 0.00 0.00 95 1017.1
20260906060854 78 169 0.0 1.0 0.00 0.00 0.00 95 1017.1
20260906060352 78 169 0.0 0.0 0.00 0.00 0.00 94 1017.3
20260906055848 79 169 0.0 0.0 0.00 0.00 0.00 94 1017.2
20260906055343 79 169 0.0 0.0 0.00 0.00 0.00 94 1017.3
20260906054838 78 169 0.0 1.0 0.00 0.00 0.00 94 1017.3
20260906054333 78 169 0.0 1.0 0.00 0.00 0.00 95 1017.4
20260906053830 78 169 0.0 0.0 0.00 0.00 0.00 95 1017.4
20260906053325 78 169 0.0 1.0 0.00 0.00 0.00 96 1017.5
20260906052820 78 169 0.0 0.0 0.00 0.00 0.00 96 1017.5
20260906052317 78 169 0.0 1.0 0.00 0.00 0.00 96 1017.7
20260906051814 78 169 1.0 1.0 0.00 0.00 0.00 97 1017.7
20260906051313 78 169 0.0 1.0 0.00 0.00 0.00 97 1017.4
20260906050809 78 169 1.0 1.0 0.00 0.00 0.00 97 1017.5
20260906050304 78 169 0.0 0.0 0.00 0.00 0.00 97 1017.6
20260906045802 78 169 0.0 1.0 0.00 0.00 0.00 97 1017.6
20260906045257 78 169 1.0 1.0 0.00 0.00 0.00 96 1017.7
20260906044754 78 169 0.0 0.0 0.00 0.00 0.00 96 1017.9
20260906044248 78 169 0.0 1.0 0.00 0.00 0.00 96 1017.5
20260906043744 78 169 1.0 1.0 0.00 0.00 0.00 96 1017.7
20260906043240 78 169 0.0 0.0 0.00 0.00 0.00 96 1017.7
20260906042739 78 169 0.0 0.0 0.00 0.00 0.00 96 1017.9
20260906042238 78 169 1.0 1.0 0.00 0.00 0.00 96 1017.8
20260906041734 78 169 1.0 1.0 0.00 0.00 0.00 96 1017.9
20260906041229 79 169 0.0 0.0 0.00 0.00 0.00 96 1018.0
20260906040725 79 169 1.0 1.0 0.00 0.00 0.00 95 1017.9
20260906040220 79 169 0.0 0.0 0.00 0.00 0.00 95 1018.0
20260906035715 79 169 0.0 0.0 0.00 0.00 0.00 95 1018.0
20260906035210 79 169 0.0 0.0 0.00 0.00 0.00 95 1018.1
20260906034704 79 169 1.0 1.0 0.00 0.00 0.00 95 1018.0
20260906034159 79 169 0.0 0.0 0.00 0.00 0.00 95 1018.0
20260906033655 79 169 0.0 0.0 0.00 0.00 0.00 95 1018.1
20260906033156 79 169 0.0 0.0 0.00 0.00 0.00 95 1018.2
20260906032652 79 169 0.0 0.0 0.00 0.00 0.00 95 1018.1
20260906032146 79 169 0.0 1.0 0.00 0.00 0.00 95 1018.1
20260906031641 79 169 1.0 1.0 0.00 0.00 0.00 95 1018.2
20260906031137 79 169 0.0 0.0 0.00 0.00 0.00 94 1018.5
20260906030636 79 169 0.0 0.0 0.00 0.00 0.00 94 1018.4
20260906030132 79 171 2.0 2.0 0.00 0.00 0.00 94 1018.2
20260906025631 80 154 2.0 2.0 0.00 0.00 0.00 93 1018.3
20260906025130 80 128 0.0 0.0 0.00 0.00 0.00 93 1018.3
20260906024625 80 128 0.0 1.0 0.00 0.00 0.00 92 1018.4
20260906024119 80 126 0.0 0.0 0.00 0.00 0.00 93 1018.3
20260906023615 80 126 0.0 1.0 0.00 0.00 0.00 92 1018.3
20260906023109 80 108 1.0 1.0 0.00 0.00 0.00 91 1018.2
20260906022605 81 115 1.0 1.0 0.00 0.00 0.00 91 1018.1
20260906022101 81 176 2.0 2.0 0.00 0.00 0.00 90 1018.2
20260906021556 81 177 0.0 0.0 0.00 0.00 0.00 90 1018.1
20260906021055 81 178 1.0 2.0 0.00 0.00 0.00 90 1018.0
20260906020554 81 176 0.0 1.0 0.00 0.00 0.00 90 1017.9
20260906020054 81 176 0.0 0.0 0.00 0.00 0.00 89 1018.0
20260906015553 82 174 1.0 1.0 0.00 0.00 0.00 89 1017.9
20260906015048 82 163 0.0 1.0 0.00 0.00 0.00 88 1017.8
20260906014542 82 163 0.0 1.0 0.00 0.00 0.00 88 1017.6
20260906014038 82 163 0.0 1.0 0.00 0.00 0.00 87 1017.4
20260906013533 82 160 1.0 1.0 0.00 0.00 0.00 87 1017.3
20260906013029 82 173 2.0 3.0 0.00 0.00 0.00 87 1017.6
20260906012524 82 175 1.0 3.0 0.00 0.00 0.00 88 1017.4
20260906012023 82 168 2.0 3.0 0.00 0.00 0.00 88 1017.2
20260906011520 82 187 3.0 3.0 0.00 0.00 0.00 88 1017.1
20260906011019 82 171 2.0 3.0 0.00 0.00 0.00 88 1017.0
20260906010515 82 154 0.0 1.0 0.00 0.00 0.00 87 1017.1
20260906010011 82 154 0.0 0.0 0.00 0.00 0.00 87 1017.3
20260906005509 83 154 0.0 1.0 0.00 0.00 0.00 87 1017.1
20260906005008 83 168 2.0 3.0 0.00 0.00 0.00 86 1017.1
20260906004503 82 162 1.0 5.0 0.00 0.00 0.00 88 1017.1
20260906003958 81 176 3.0 3.0 0.00 0.00 0.00 90 1017.1
20260906003453 82 164 2.0 2.0 0.00 0.00 0.00 90 1017.0
20260906002949 82 145 0.0 2.0 0.00 0.00 0.00 90 1017.0
20260906002449 82 152 2.0 3.0 0.00 0.00 0.00 89 1017.1
20260906001944 83 138 0.0 1.0 0.00 0.00 0.00 87 1017.2
20260906001439 83 138 0.0 0.0 0.00 0.00 0.00 87 1017.4
20260906000929 83 138 0.0 0.0 0.00 0.00 0.00 87 1017.5
20260906000425 84 138 0.0 0.0 0.00 0.00 0.00 86 1017.3
20260905235919 84 138 0.0 0.0 0.00 0.00 0.00 85 1017.4
20260905235413 84 138 0.0 1.0 0.00 0.00 0.00 84 1017.6
20260905234908 84 138 0.0 1.0 0.00 0.00 0.00 84 1017.3
20260905234403 84 144 0.0 1.0 0.00 0.00 0.00 85 1017.2
20260905233858 85 143 0.0 1.0 0.00 0.00 0.00 84 1017.3
20260905233353 85 142 0.0 1.0 0.00 0.00 0.00 83 1017.5
20260905232847 86 151 2.0 2.0 0.00 0.00 0.00 82 1017.5
20260905232343 86 165 1.0 2.0 0.00 0.00 0.00 80 1017.3
20260905231838 87 156 1.0 1.0 0.00 0.00 0.00 78 1017.5
20260905231333 87 172 2.0 2.0 0.00 0.00 0.00 77 1017.5
20260905230830 87 162 1.0 2.0 0.00 0.00 0.00 77 1017.4
20260905230327 87 156 1.0 2.0 0.00 0.00 0.00 77 1017.5
20260905225826 88 172 2.0 3.0 0.00 0.00 0.00 76 1017.4
20260905225321 88 181 3.0 3.0 0.00 0.00 0.00 76 1017.1
20260905224816 88 201 2.0 2.0 0.00 0.00 0.00 76 1017.0
20260905224312 88 190 3.0 5.0 0.00 0.00 0.00 76 1017.0
20260905223807 88 157 2.0 3.0 0.00 0.00 0.00 75 1016.9
20260905223304 89 195 3.0 3.0 0.00 0.00 0.00 74 1016.8
20260905222759 89 188 2.0 2.0 0.00 0.00 0.00 73 1016.7
20260905222258 89 174 3.0 3.0 0.00 0.00 0.00 72 1016.8
20260905221754 90 184 3.0 3.0 0.00 0.00 0.00 72 1016.7
20260905221251 91 181 1.0 2.0 0.00 0.00 0.00 70 1016.7
20260905220746 91 241 2.0 3.0 0.00 0.00 0.00 69 1016.8
20260905220242 91 225 2.0 5.0 0.00 0.00 0.00 69 1016.8
20260905215741 92 161 3.0 5.0 0.00 0.00 0.00 68 1016.8
20260905215237 92 200 3.0 3.0 0.00 0.00 0.00 67 1017.0
20260905214733 91 190 2.0 6.0 0.00 0.00 0.00 69 1016.8
20260905214229 92 202 3.0 5.0 0.00 0.00 0.00 67 1017.1
20260905213723 94 255 4.0 6.0 0.00 0.00 0.00 65 1017.1
20260905213220 93 162 0.0 2.0 0.00 0.00 0.00 65 1016.9
20260905212714 93 239 2.0 3.0 0.00 0.00 0.00 65 1016.6
20260905212213 93 160 3.0 3.0 0.00 0.00 0.00 67 1017.2
20260905211708 93 217 6.0 6.0 0.00 0.00 0.00 65 1017.2
20260905211203 91 171 2.0 7.0 0.00 0.00 0.00 68 1017.1
20260905210655 92 158 3.0 6.0 0.00 0.00 0.00 69 1017.1
20260905210155 92 190 2.0 3.0 0.00 0.00 0.00 67 1016.9
20260905205654 93 170 3.0 6.0 0.00 0.00 0.00 66 1017.0
20260905205153 94 173 3.0 3.0 0.00 0.00 0.00 67 1016.7
20260905204653 92 30 2.0 3.0 0.00 0.00 0.00 66 1017.0
20260905204148 92 137 1.0 3.0 0.00 0.00 0.00 67 1016.8
20260905203643 93 68 4.0 5.0 0.00 0.00 0.00 66 1016.9
20260905203138 92 164 2.0 3.0 0.00 0.00 0.00 68 1017.0
20260905202634 92 160 1.0 3.0 0.00 0.00 0.00 65 1016.9
20260905202129 92 257 3.0 7.0 0.00 0.00 0.00 66 1017.1
20260905201624 93 169 3.0 5.0 0.00 0.00 0.00 65 1017.3
20260905201124 92 237 3.0 3.0 0.00 0.00 0.00 66 1017.0
20260905200620 92 212 5.0 7.0 0.00 0.00 0.00 66 1017.3
20260905200114 93 352 5.0 8.0 0.00 0.00 0.00 67 1017.1
20260905195613 92 170 1.0 3.0 0.00 0.00 0.00 67 1017.2
20260905195108 92 242 3.0 3.0 0.00 0.00 0.00 68 1017.4
20260905194603 92 162 2.0 2.0 0.00 0.00 0.00 68 1017.4
20260905194102 93 290 3.0 3.0 0.00 0.00 0.00 68 1017.4
20260905193556 93 182 7.0 8.0 0.00 0.00 0.00 68 1017.6
20260905193052 93 206 3.0 5.0 0.00 0.00 0.00 67 1017.7
20260905192548 92 50 2.0 2.0 0.00 0.00 0.00 67 1017.7
20260905192044 92 172 3.0 3.0 0.00 0.00 0.00 66 1018.0
20260905191542 92 252 2.0 3.0 0.00 0.00 0.00 68 1018.0
20260905191041 91 193 4.0 5.0 0.00 0.00 0.00 68 1017.9
20260905190540 89 140 1.0 5.0 0.00 0.00 0.00 75 1018.0
20260905190034 91 175 4.0 6.0 0.00 0.00 0.00 70 1017.6
20260905185533 91 202 5.0 6.0 0.00 0.00 0.00 67 1018.0
20260905185032 91 185 4.0 8.0 0.00 0.00 0.00 69 1018.2
20260905184527 92 197 5.0 6.0 0.00 0.00 0.00 68 1018.2
20260905184025 91 255 3.0 3.0 0.00 0.00 0.00 69 1018.2
20260905183520 90 144 0.0 2.0 0.00 0.00 0.00 70 1018.5
20260905183015 91 175 2.0 5.0 0.00 0.00 0.00 68 1018.3
20260905182515 91 273 4.0 6.0 0.00 0.00 0.00 69 1018.6
20260905182009 91 266 5.0 6.0 0.00 0.00 0.00 69 1018.7
20260905181504 91 214 2.0 5.0 0.00 0.00 0.00 68 1018.6
20260905181003 90 164 4.0 5.0 0.00 0.00 0.00 69 1018.8
20260905180458 90 177 3.0 5.0 0.00 0.00 0.00 72 1018.7
20260905175954 89 161 1.0 3.0 0.00 0.00 0.00 75 1018.8
20260905175453 90 181 3.0 7.0 0.00 0.00 0.00 74 1019.1
20260905174949 89 193 5.0 6.0 0.00 0.00 0.00 74 1019.2
20260905174443 88 155 0.0 1.0 0.00 0.00 0.00 74 1019.1
20260905173939 87 190 1.0 2.0 0.00 0.00 0.00 74 1019.3
20260905173436 87 88 1.0 2.0 0.00 0.00 0.00 75 1019.3
20260905172931 87 170 0.0 2.0 0.00 0.00 0.00 78 1019.5
20260905172429 87 88 2.0 2.0 0.00 0.00 0.00 78 1019.5
20260905171925 88 160 2.0 3.0 0.00 0.00 0.00 77 1019.6
20260905171421 88 110 1.0 1.0 0.00 0.00 0.00 75 1019.7
20260905170917 88 151 3.0 3.0 0.00 0.00 0.00 75 1019.6
20260905170413 88 187 5.0 7.0 0.00 0.00 0.00 75 1019.3
20260905165912 88 172 4.0 6.0 0.00 0.00 0.00 78 1019.6
20260905165408 88 221 4.0 7.0 0.00 0.00 0.00 75 1019.7
20260905164903 87 183 6.0 8.0 0.00 0.00 0.00 76 1019.6
20260905164357 88 121 2.0 3.0 0.00 0.00 0.00 76 1019.9
20260905163852 88 168 1.0 3.0 0.00 0.00 0.00 75 1019.9
20260905163349 87 210 1.0 2.0 0.00 0.00 0.00 78 1020.3
20260905162845 85 244 2.0 5.0 0.00 0.00 0.00 81 1020.4
20260905162344 87 274 2.0 3.0 0.00 0.00 0.00 79 1020.5
20260905161839 87 137 1.0 3.0 0.00 0.00 0.00 77 1020.2
20260905161338 86 169 0.0 2.0 0.00 0.00 0.00 78 1020.4
20260905160837 85 301 2.0 3.0 0.00 0.00 0.00 81 1020.5
20260905160331 87 266 2.0 5.0 0.00 0.00 0.00 80 1020.5
20260905155825 86 179 1.0 3.0 0.00 0.00 0.00 80 1020.7
20260905155324 85 16 2.0 3.0 0.00 0.00 0.00 82 1020.4
20260905154819 85 310 3.0 6.0 0.00 0.00 0.00 82 1020.6
20260905154315 86 17 2.0 3.0 0.00 0.00 0.00 80 1020.4
20260905153810 85 119 1.0 5.0 0.00 0.00 0.00 82 1020.7
20260905153306 86 96 2.0 2.0 0.00 0.00 0.00 81 1020.6
20260905152800 83 84 1.0 2.0 0.00 0.00 0.00 85 1020.7
20260905152259 83 77 2.0 5.0 0.00 0.00 0.00 86 1020.8
20260905151800 84 278 4.0 6.0 0.00 0.00 0.00 85 1020.9
20260905151255 83 139 2.0 2.0 0.00 0.00 0.00 85 1020.8
20260905150750 82 171 1.0 2.0 0.00 0.00 0.00 85 1020.8
20260905150250 82 224 3.0 3.0 0.00 0.00 0.00 87 1020.8
20260905145747 82 114 1.0 3.0 0.00 0.00 0.00 87 1020.9
20260905145242 84 13 5.0 7.0 0.00 0.00 0.00 85 1020.9
20260905144741 84 280 2.0 2.0 0.00 0.00 0.00 84 1020.9
20260905144237 82 75 2.0 3.0 0.00 0.00 0.00 88 1020.8
20260905143735 81 114 1.0 2.0 0.00 0.00 0.00 89 1021.0